Location: Newark
(54.6833°N, 25.2833°E)
Time: 21:43:46
(UTC+00:00)

Tiros 1 despin weight - Pass Details

Date: 19 November 2019
Orbit: 594 x 642 km, 48.2° (Epoch: 07 December)

Event Time Altitude Azimuth Distance (km) Brightness Sun altitude
Rises 14:17:55 0° 255° (WSW) 2,834 ? -1.6°
Reaches altitude 10° 14:20:19 10° 247° (WSW) 1,937 ? -1.9°
Maximum altitude 14:24:23 36° 181° (S) 959 ? -2.4°
Drops below altitude 10° 14:28:30 10° 115° (ESE) 1,958 ? -2.9°
Sets 14:30:56 0° 107° (ESE) 2,871 ? -3.2°
